period_start,C,m1,H,J0,J1,J2,J3,J4,J5,JA,JB,JC,JD,JJ,JK,JN,#
2017-10-14 00:02:33,0.01,0.49,0.00,19.43,23.07,26.28,14.31,47.05,1027.27,2048.01,3298.23,2989.00,3407.99,599.99,609.62,33.60,0000 0000 0000 0000 000000
2017-10-14 00:07:35,0.00,0.49,0.00,19.43,23.07,26.27,14.23,47.08,1027.32,2048.01,3298.01,2988.98,3407.94,599.31,609.01,33.65,0000 0000 0000 0000 000000
2017-10-14 00:12:36,0.01,0.49,0.00,19.44,23.07,26.27,14.24,47.06,1027.32,2048.01,3298.00,2988.90,3407.39,599.76,609.50,33.70,0000 0000 0000 0000 000000
2017-10-14 00:17:37,0.03,0.50,0.00,19.40,23.07,26.32,14.30,47.16,1027.30,2048.00,3297.69,2988.37,3407.02,600.02,609.73,33.75,0000 0000 0000 0000 000000
2017-10-14 00:22:39,0.23,0.50,0.00,19.47,23.07,26.29,14.24,47.02,1027.32,2048.00,3293.85,2986.40,3404.89,599.68,609.21,33.80,0000 0000 0000 0000 000000
2017-10-14 00:27:40,0.31,0.52,0.00,19.43,23.07,26.31,14.35,47.13,1027.34,2047.99,3285.75,2981.71,3399.69,600.06,609.67,33.85,0000 0000 0000 0000 000000
2017-10-14 00:32:42,0.19,0.53,0.00,19.48,23.07,26.31,14.34,47.13,1027.36,2047.99,3280.31,2978.47,3396.06,599.63,609.22,33.90,0000 0000 0000 0000 000000
2017-10-14 00:37:43,0.03,0.54,0.00,19.45,23.07,26.32,14.22,47.02,1027.36,2047.98,3278.96,2977.54,3395.02,600.04,609.66,33.95,0000 0000 0000 0000 000000
2017-10-14 00:42:45,0.15,0.54,0.00,19.53,23.07,26.30,14.33,47.05,1027.36,2047.98,3276.11,2976.16,3393.62,600.21,609.69,34.00,0000 0000 0000 0000 000000
2017-10-14 00:47:46,0.18,0.55,0.00,19.53,23.07,26.29,14.22,47.13,1027.36,2047.97,3270.54,2973.30,3390.48,599.48,609.03,34.05,0000 0000 0000 0000 000000
2017-10-14 00:52:47,0.03,0.55,0.00,19.57,23.09,26.30,14.29,47.20,1027.36,2047.98,3269.22,2972.72,3389.92,600.08,609.47,34.10,0000 0000 0000 0000 000000
2017-10-14 00:57:48,0.02,0.56,0.00,19.59,23.09,26.27,14.30,47.08,1027.36,2047.97,3268.99,2972.05,3389.16,600.08,609.43,34.15,0000 0000 0000 0000 000000
2017-10-14 01:02:50,0.00,0.56,0.00,19.61,23.10,26.30,14.23,47.01,1027.36,2047.97,3268.76,2972.00,3389.01,599.84,609.16,34.20,0000 0000 0000 0000 000000
2017-10-14 01:07:51,0.02,0.56,0.00,19.65,23.12,26.27,14.31,47.14,1027.36,2047.94,3268.03,2971.83,3388.76,600.26,609.56,34.25,0000 0000 0000 0000 000000
2017-10-14 01:12:52,0.00,0.56,0.00,19.67,23.13,26.27,14.30,47.06,1027.37,2047.73,3267.86,2971.13,3388.06,599.98,609.18,34.31,0000 0000 0000 0000 000000
2017-10-14 01:17:53,0.01,0.56,0.00,19.72,23.14,26.27,14.25,47.08,1027.38,2047.52,3267.02,2970.95,3387.80,599.92,609.06,34.36,0000 0000 0000 0000 000000
2017-10-14 01:22:55,0.05,0.56,0.00,19.71,23.16,26.32,14.25,47.00,1027.41,2047.34,3265.85,2970.13,3386.96,599.85,609.11,34.41,0000 0000 0000 0000 000000
2017-10-14 01:27:56,0.01,0.56,0.00,19.75,23.18,26.31,14.32,47.16,1027.42,2047.12,3265.03,2969.74,3386.12,600.28,609.16,34.46,0000 0000 0000 0000 000000
2017-10-14 01:32:57,0.02,0.56,0.00,19.72,23.19,26.38,14.21,47.00,1027.45,2047.02,3264.63,2969.07,3385.84,599.90,609.02,34.51,0000 0000 0000 0000 000000
2017-10-14 01:37:58,0.02,0.56,0.00,19.80,23.21,26.36,14.30,47.14,1027.59,2047.00,3263.94,2968.85,3385.06,600.12,609.16,34.56,0000 0000 0000 0000 000000
2017-10-14 01:42:59,0.05,0.57,0.00,19.78,23.22,26.34,14.25,47.02,1027.59,2047.00,3263.09,2968.07,3384.44,600.05,609.13,34.61,0000 0000 0000 0000 000000
2017-10-14 01:48:01,0.03,0.57,0.00,19.82,23.24,26.33,14.24,47.07,1027.69,2047.00,3262.24,2967.74,3383.97,600.11,609.01,34.66,0000 0000 0000 0000 000000
2017-10-14 01:53:02,0.03,0.57,0.00,19.84,23.24,26.36,14.25,47.14,1027.75,2047.00,3261.76,2967.04,3383.23,599.95,608.91,34.71,0000 0000 0000 0000 000000
2017-10-14 01:58:03,0.01,0.57,0.00,19.82,23.27,26.38,14.17,47.04,1027.81,2047.00,3261.02,2966.85,3382.96,599.76,608.89,34.76,0000 0000 0000 0000 000000
2017-10-14 02:03:04,0.04,0.57,0.00,19.88,23.27,26.40,14.27,47.03,1027.80,2047.00,3260.55,2966.16,3382.32,600.26,609.26,34.81,0000 0000 0000 0000 000000
2017-10-14 02:08:06,0.01,0.57,0.00,19.86,23.29,26.43,14.32,46.98,1027.78,2047.00,3260.01,2966.00,3382.01,600.47,609.31,34.86,0000 0000 0000 0000 000000
2017-10-14 02:13:07,0.02,0.57,0.00,19.94,23.30,26.41,14.30,46.98,1027.79,2046.99,3259.55,2965.82,3381.66,600.29,609.17,34.91,0000 0000 0000 0000 000000
2017-10-14 02:18:09,0.03,0.58,0.00,19.92,23.32,26.37,14.24,47.01,1027.83,2046.98,3259.00,2965.12,3381.05,600.08,608.95,34.96,0000 0000 0000 0000 000000
2017-10-14 02:23:10,0.01,0.58,0.00,19.94,23.33,26.46,14.24,46.98,1027.84,2046.98,3258.52,2965.00,3380.99,599.86,608.58,35.01,0000 0000 0000 0000 000000
2017-10-14 02:28:11,0.02,0.58,0.00,19.96,23.34,26.42,14.26,47.06,1027.85,2046.97,3258.01,2964.81,3380.38,600.11,608.83,35.06,0000 0000 0000 0000 000000
2017-10-14 02:33:13,0.02,0.58,0.00,19.98,23.36,26.45,14.25,47.17,1027.85,2046.93,3257.74,2964.11,3380.01,600.07,608.89,35.11,0000 0000 0000 0000 000000
2017-10-14 02:38:14,0.01,0.58,0.00,20.02,23.37,26.45,14.17,47.01,1027.85,2046.96,3256.99,2963.99,3379.80,599.82,608.56,35.16,0000 0000 0000 0000 000000
2017-10-14 02:43:15,0.04,0.58,0.00,20.00,23.39,26.50,14.24,46.98,1027.85,2046.93,3256.08,2963.23,3379.03,599.95,608.74,35.22,0000 0000 0000 0000 000000
2017-10-14 02:48:17,0.03,0.58,0.00,20.05,23.41,26.50,14.24,47.08,1027.85,2046.90,3255.41,2962.98,3378.38,600.52,609.24,35.27,0000 0000 0000 0000 000000
2017-10-14 02:53:18,0.01,0.58,0.00,20.06,23.42,26.47,14.22,46.96,1027.85,2046.77,3254.95,2962.34,3377.99,600.12,608.79,35.32,0000 0000 0000 0000 000000
2017-10-14 02:58:19,0.01,0.59,0.00,20.06,23.45,26.50,14.24,46.93,1027.85,2046.61,3254.09,2961.96,3377.41,600.03,608.76,35.37,0000 0000 0000 0000 000000
2017-10-14 03:03:20,0.02,0.59,0.00,20.10,23.46,26.49,14.16,46.88,1027.85,2046.38,3253.19,2961.21,3376.81,599.85,608.30,35.42,0000 0000 0000 0000 000000
2017-10-14 03:08:21,0.03,0.59,0.00,20.06,23.48,26.52,14.24,46.94,1027.86,2046.15,3252.22,2960.65,3375.94,599.89,608.67,35.47,0000 0000 0000 0000 000000
2017-10-14 03:13:22,0.04,0.59,0.00,20.14,23.50,26.58,14.23,46.88,1027.87,2046.06,3251.01,2959.85,3375.00,600.06,608.63,35.52,0000 0000 0000 0000 000000
2017-10-14 03:18:23,0.06,0.59,0.00,20.11,23.52,26.58,14.21,47.02,1027.86,2046.01,3249.82,2958.94,3374.01,599.96,608.43,35.57,0000 0000 0000 0000 000000
2017-10-14 03:23:25,0.08,0.60,0.00,20.12,23.53,26.64,14.27,46.99,1027.87,2046.01,3248.41,2957.80,3372.72,599.84,608.34,35.62,0000 0000 0000 0000 000000
2017-10-14 03:28:26,0.07,0.60,0.00,20.14,23.55,26.70,14.25,46.94,1027.91,2046.00,3246.82,2956.65,3371.51,599.93,608.44,35.67,0000 0000 0000 0000 000000
2017-10-14 03:33:27,0.06,0.60,0.00,20.12,23.57,26.67,14.24,46.95,1027.99,2046.00,3245.46,2955.72,3370.31,600.10,608.67,35.72,0000 0000 0000 0000 000000
2017-10-14 03:38:29,0.04,0.61,0.00,20.20,23.58,26.72,14.20,46.88,1028.09,2046.00,3244.42,2954.97,3369.48,599.99,608.41,35.77,0000 0000 0000 0000 000000
2017-10-14 03:43:30,0.05,0.61,0.00,20.18,23.60,26.68,14.24,46.97,1028.20,2045.99,3243.30,2954.10,3368.55,599.95,608.63,35.82,0000 0000 0000 0000 000000
2017-10-14 03:48:31,0.06,0.61,0.00,20.16,23.61,26.70,14.23,46.92,1028.28,2045.98,3241.90,2953.14,3367.48,600.02,608.76,35.87,0000 0000 0000 0000 000000
2017-10-14 03:53:32,0.06,0.62,0.00,20.19,23.62,26.79,14.28,46.91,1028.31,2045.97,3240.44,2952.04,3366.29,599.80,608.50,35.92,0000 0000 0000 0000 000000
2017-10-14 03:58:33,0.09,0.62,0.00,20.18,23.64,26.77,14.24,46.93,1028.32,2045.96,3238.75,2950.78,3364.86,600.13,608.88,35.97,0000 0000 0000 0000 000000
2017-10-14 04:03:35,0.11,0.63,0.00,20.17,23.65,26.81,14.21,47.08,1028.33,2045.95,3236.53,2949.17,3363.05,600.04,608.77,36.02,0000 0000 0000 0000 000000
2017-10-14 04:08:36,0.14,0.63,0.00,20.19,23.67,26.85,14.22,47.02,1028.33,2045.78,3233.38,2946.87,3360.49,599.75,608.39,36.07,0000 0000 0000 0000 000000
2017-10-14 04:13:38,0.13,0.64,0.00,20.20,23.68,26.85,14.26,47.13,1028.33,2045.58,3230.22,2944.60,3357.99,600.15,608.82,36.12,0000 0000 0000 0000 000000
2017-10-14 04:18:39,0.10,0.65,0.00,20.27,23.70,26.84,14.30,47.03,1028.33,2045.28,3227.31,2942.62,3355.66,600.11,608.66,36.18,0000 0000 0000 0000 000000
2017-10-14 04:23:40,0.08,0.65,0.00,20.27,23.71,26.86,14.20,47.04,1028.33,2045.10,3225.06,2941.05,3353.85,599.87,608.21,36.23,0000 0000 0000 0000 000000
2017-10-14 04:28:41,0.08,0.65,0.00,20.26,23.72,26.89,14.29,47.03,1028.33,2045.06,3223.32,2939.81,3352.53,600.04,608.61,36.28,0000 0000 0000 0000 000000
2017-10-14 04:33:43,0.08,0.66,0.00,20.26,23.73,26.91,14.26,47.08,1028.33,2045.02,3221.49,2938.54,3351.01,600.05,608.48,36.33,0000 0000 0000 0000 000000
2017-10-14 04:38:44,0.09,0.66,0.00,20.24,23.75,26.92,14.26,47.09,1028.34,2045.00,3219.58,2937.31,3349.56,600.23,608.76,36.38,0000 0000 0000 0000 000000
2017-10-14 04:43:45,0.08,0.67,0.00,20.27,23.77,26.95,14.29,47.09,1028.34,2045.00,3217.75,2936.03,3348.16,600.07,608.59,36.43,0000 0000 0000 0000 000000
2017-10-14 04:48:46,0.08,0.67,0.00,20.25,23.77,26.96,14.27,47.05,1028.36,2045.00,3216.13,2934.88,3346.87,600.25,608.76,36.48,0000 0000 0000 0000 000000
2017-10-14 04:53:47,0.06,0.67,0.00,20.26,23.79,27.00,14.30,47.13,1028.37,2045.00,3214.69,2933.91,3345.82,600.03,608.60,36.53,0000 0000 0000 0000 000000
2017-10-14 04:58:49,0.08,0.68,0.00,20.27,23.80,27.01,14.31,47.12,1028.38,2045.00,3213.08,2932.80,3344.57,600.07,608.68,36.58,0000 0000 0000 0000 000000
2017-10-14 05:03:50,0.06,0.68,0.00,20.23,23.81,27.02,14.26,46.93,1028.40,2045.00,3211.47,2931.87,3343.42,599.87,608.51,36.63,0000 0000 0000 0000 000000
2017-10-14 05:08:51,0.04,0.69,0.00,20.27,23.82,27.03,14.28,47.13,1028.44,2044.98,3210.67,2931.03,3342.50,600.35,608.79,36.68,0000 0000 0000 0000 000000
2017-10-14 05:13:52,0.06,0.69,0.00,20.26,23.82,27.04,14.22,47.10,1028.63,2044.97,3209.35,2930.21,3341.52,599.90,608.60,36.73,0000 0000 0000 0000 000000
2017-10-14 05:18:53,0.08,0.69,0.00,20.26,23.84,27.04,14.22,46.92,1028.66,2044.95,3207.69,2929.05,3340.29,600.01,608.69,36.78,0000 0000 0000 0000 000000
2017-10-14 05:23:55,0.07,0.70,0.00,20.23,23.85,27.09,14.30,47.13,1028.73,2044.93,3205.92,2927.93,3339.02,600.07,608.74,36.83,0000 0000 0000 0000 000000
2017-10-14 05:28:56,0.07,0.70,0.00,20.25,23.85,27.10,14.21,46.97,1028.81,2044.91,3204.44,2926.84,3337.85,600.03,608.86,36.88,0000 0000 0000 0000 000000
2017-10-14 05:33:58,0.06,0.70,0.00,20.23,23.86,27.13,14.20,46.98,1028.82,2044.93,3203.02,2925.92,3336.87,599.71,608.53,36.93,0000 0000 0000 0000 000000
2017-10-14 05:38:59,0.06,0.71,0.00,20.21,23.87,27.13,14.23,46.95,1028.82,2044.86,3201.62,2925.03,3335.79,599.90,608.86,36.98,0000 0000 0000 0000 000000
2017-10-14 05:44:00,0.05,0.71,0.00,20.22,23.87,27.09,14.25,46.98,1028.82,2044.81,3200.46,2924.16,3334.89,599.84,608.80,37.03,0000 0000 0000 0000 000000
2017-10-14 05:49:01,0.03,0.71,0.00,20.18,23.87,27.12,14.26,47.16,1028.82,2044.63,3199.13,2923.23,3333.80,599.85,608.85,37.09,0000 0000 0000 0000 000000
2017-10-14 05:54:03,0.04,0.71,0.00,20.23,23.88,27.09,14.23,47.01,1028.83,2044.31,3197.97,2922.29,3332.81,600.04,608.98,37.14,0000 0000 0000 0000 000000
2017-10-14 05:59:04,0.05,0.71,0.00,20.19,23.89,27.12,14.08,46.92,1028.83,2044.10,3196.56,2921.39,3331.65,599.59,608.52,37.19,0000 0000 0000 0000 000000
2017-10-14 06:04:05,1.83,0.75,0.00,20.21,23.89,27.12,14.28,47.04,1028.84,2044.05,3175.06,2905.40,3314.26,599.79,608.75,37.24,0000 0000 0000 0000 000000
2017-10-14 06:09:06,6.97,1.01,0.00,20.18,23.90,27.11,14.28,47.16,1028.87,2044.00,3061.68,2820.75,3221.67,600.28,609.28,37.29,0000 0000 0000 0000 000000
2017-10-14 06:14:08,7.41,1.39,0.00,20.17,23.90,27.11,14.34,47.33,1028.91,2044.00,2927.02,2719.40,3110.95,600.00,609.15,37.34,0000 0000 0000 0000 000000
2017-10-14 06:19:09,2.34,1.63,0.00,20.17,23.90,27.13,14.25,47.23,1028.89,2043.98,2861.08,2669.41,3056.46,599.88,608.92,37.39,0000 0000 0000 0000 000000
2017-10-14 06:24:10,1.05,1.69,0.00,20.11,23.90,27.12,14.32,47.41,1028.96,2043.95,2842.47,2655.51,3041.27,600.01,609.03,37.44,0000 0000 0000 0000 000000
2017-10-14 06:29:11,0.32,1.72,1.20,20.14,23.90,27.11,14.22,47.30,1028.95,2043.95,2834.11,2649.41,3034.60,599.98,609.06,37.49,0000 0000 0000 0000 000000
2017-10-14 06:34:13,1.34,1.76,3.00,20.14,23.90,27.10,14.24,47.23,1028.91,2043.94,2818.08,2637.30,3021.31,600.11,609.24,37.54,0000 0000 0000 0000 000000
2017-10-14 06:39:14,0.79,1.82,3.00,20.16,23.90,27.09,14.31,47.38,1028.96,2043.89,2800.03,2623.76,3006.51,600.34,609.37,37.59,0000 0000 0000 0000 000000
2017-10-14 06:44:15,0.23,1.84,3.00,20.13,23.90,27.08,14.24,47.33,1029.01,2043.87,2794.76,2619.86,3002.31,599.70,608.82,37.64,0000 0000 0000 0000 000000
2017-10-14 06:49:17,0.37,1.86,3.00,20.11,23.90,27.08,14.24,47.17,1028.92,2043.82,2789.10,2615.70,2997.59,599.51,608.70,37.69,0000 0000 0000 0000 000000
2017-10-14 06:54:18,0.27,1.88,3.00,20.14,23.90,27.10,14.26,47.52,1028.91,2043.83,2784.28,2612.07,2993.81,599.97,609.10,37.74,0000 0000 0000 0000 000000
2017-10-14 06:59:19,0.03,1.88,2.13,20.09,23.90,27.09,14.20,47.33,1029.01,2043.79,2782.74,2611.03,2992.55,599.71,609.10,37.79,0000 0000 0000 0000 000000
2017-10-14 07:04:20,0.03,1.88,1.00,20.10,23.88,27.09,14.30,47.45,1029.10,2043.83,2782.03,2610.88,2992.01,599.94,609.21,37.84,0000 0000 0000 0000 000000
2017-10-14 07:09:21,0.06,1.89,1.00,20.08,23.87,27.08,14.18,47.19,1029.18,2043.85,2781.50,2610.16,2991.73,600.00,609.22,37.89,0000 0000 0000 0000 000000
2017-10-14 07:14:22,0.02,1.89,1.00,20.11,23.87,27.08,14.33,47.33,1029.17,2043.95,2780.92,2610.00,2991.04,599.97,609.39,37.95,0000 0000 0000 0000 000000
2017-10-14 07:19:23,0.08,1.89,1.00,20.08,23.87,27.07,14.31,47.36,1029.21,2043.95,2779.78,2609.22,2990.42,600.25,609.54,38.00,0000 0000 0000 0000 000000
2017-10-14 07:24:25,0.91,1.91,1.00,20.06,23.86,27.07,14.30,47.33,1029.21,2043.94,2769.09,2601.85,2982.27,600.33,609.89,38.05,0000 0000 0000 0000 000000
2017-10-14 07:29:26,0.36,1.95,0.53,20.05,23.85,27.06,14.28,47.50,1029.28,2043.95,2758.28,2594.48,2974.09,600.07,609.56,38.10,0000 0000 0000 0000 000000
2017-10-14 07:34:27,0.13,1.96,0.00,20.02,23.85,27.05,14.26,47.48,1029.30,2043.96,2755.73,2592.83,2972.26,600.00,609.59,38.15,0000 0000 0000 0000 000000
2017-10-14 07:39:28,0.04,1.96,0.00,20.02,23.85,27.04,14.26,47.35,1029.31,2043.97,2754.78,2592.04,2971.42,599.98,609.68,38.20,0000 0000 0000 0000 000000
2017-10-14 07:44:30,0.02,1.97,0.00,20.03,23.83,27.02,14.28,47.42,1029.25,2043.97,2754.04,2591.77,2971.00,599.89,609.32,38.25,0000 0000 0000 0000 000000
2017-10-14 07:49:31,0.05,1.97,0.00,20.05,23.82,27.03,14.23,47.37,1029.28,2043.98,2753.29,2591.04,2970.40,599.75,609.23,38.30,0000 0000 0000 0000 000000
2017-10-14 07:54:33,0.05,1.97,0.00,19.99,23.82,27.02,14.31,47.33,1029.29,2043.99,2752.22,2590.56,2969.89,599.82,609.47,38.35,0000 0000 0000 0000 000000
2017-10-14 07:59:34,0.03,1.97,0.00,19.98,23.81,27.01,14.31,47.33,1029.28,2043.99,2751.92,2590.03,2969.13,599.94,609.61,38.40,0000 0000 0000 0000 000000
2017-10-14 08:04:36,0.02,1.97,0.00,19.96,23.80,27.01,14.28,47.40,1029.27,2043.99,2751.13,2589.99,2969.00,600.16,609.95,38.45,0000 0000 0000 0000 000000
2017-10-14 08:09:37,0.03,1.98,0.00,19.96,23.80,27.00,14.27,47.37,1029.24,2043.99,2751.00,2589.70,2968.65,599.93,609.63,38.50,0000 0000 0000 0000 000000
2017-10-14 08:14:38,0.03,1.98,0.00,20.00,23.78,26.98,14.21,47.33,1029.23,2043.99,2750.62,2589.08,2968.05,599.29,609.11,38.55,0000 0000 0000 0000 000000
2017-10-14 08:19:40,0.01,1.98,0.00,19.97,23.77,26.96,14.27,47.42,1029.14,2043.99,2750.00,2588.99,2967.97,599.97,609.55,38.60,0000 0000 0000 0000 000000
2017-10-14 08:24:41,0.05,1.98,0.00,19.96,23.77,26.94,14.25,47.48,1028.95,2043.99,2749.32,2588.67,2967.42,599.82,609.36,38.65,0000 0000 0000 0000 000000
2017-10-14 08:29:42,0.01,1.98,0.00,19.91,23.76,26.97,14.30,47.39,1028.90,2043.99,2749.00,2588.08,2967.02,600.12,609.65,38.70,0000 0000 0000 0000 000000
2017-10-14 08:34:44,0.01,1.98,0.00,19.93,23.75,26.93,14.33,47.37,1028.92,2044.00,2748.60,2588.00,2966.97,599.76,609.32,38.75,0000 0000 0000 0000 000000
2017-10-14 08:39:45,0.02,1.98,0.00,19.90,23.74,26.91,14.25,47.24,1028.89,2044.04,2748.03,2587.98,2966.63,600.08,609.74,38.80,0000 0000 0000 0000 000000
2017-10-14 08:44:47,0.01,1.98,0.00,19.91,23.72,26.90,14.30,47.33,1028.86,2044.02,2747.96,2587.76,2966.04,599.95,609.41,38.85,0000 0000 0000 0000 000000
2017-10-14 08:49:48,0.04,1.99,0.00,19.90,23.72,26.92,14.28,47.23,1028.86,2044.04,2747.33,2587.18,2966.00,599.89,609.55,38.90,0000 0000 0000 0000 000000
2017-10-14 08:54:49,0.01,1.99,0.00,19.88,23.70,26.89,14.27,47.11,1028.91,2044.12,2747.02,2587.02,2965.98,599.86,609.46,38.95,0000 0000 0000 0000 000000
2017-10-14 08:59:50,0.04,1.99,0.00,19.89,23.70,26.88,14.28,47.23,1029.01,2044.37,2746.98,2587.00,2965.91,599.98,609.74,39.01,0000 0000 0000 0000 000000
2017-10-14 09:04:51,0.05,1.99,0.00,19.85,23.67,26.90,14.30,47.21,1029.16,2044.69,2746.39,2586.99,2965.32,600.32,610.24,39.06,0000 0000 0000 0000 000000
2017-10-14 09:09:53,0.02,1.99,0.00,19.86,23.67,26.89,14.32,47.19,1029.27,2044.89,2746.02,2586.96,2965.03,600.18,610.04,39.11,0000 0000 0000 0000 000000
2017-10-14 09:14:54,0.01,1.99,0.00,19.83,23.65,26.87,14.26,47.28,1029.25,2044.97,2746.00,2586.64,2965.00,599.99,609.94,39.16,0000 0000 0000 0000 000000
2017-10-14 09:19:55,0.03,2.00,0.00,19.87,23.65,26.86,14.29,47.12,1029.30,2044.97,2745.53,2586.13,2964.99,600.33,610.21,39.21,0000 0000 0000 0000 000000
2017-10-14 09:24:57,0.01,2.00,0.00,19.83,23.63,26.83,14.29,47.22,1029.30,2044.99,2745.03,2586.02,2964.84,600.06,610.21,39.26,0000 0000 0000 0000 000000
2017-10-14 09:29:58,0.01,2.00,0.00,19.83,23.62,26.86,14.23,47.19,1029.31,2044.98,2744.98,2586.00,2964.16,599.84,609.80,39.31,0000 0000 0000 0000 000000
2017-10-14 09:34:59,0.00,2.00,0.00,19.81,23.61,26.82,14.34,47.21,1029.21,2044.99,2744.84,2586.00,2964.03,600.25,610.15,39.36,0000 0000 0000 0000 000000
2017-10-14 09:40:00,-0.00,2.00,0.00,19.81,23.60,26.83,14.25,47.21,1029.18,2044.99,2744.65,2585.98,2964.02,599.96,609.88,39.41,0000 0000 0000 0000 000000
2017-10-14 09:45:01,0.00,2.00,0.00,19.83,23.60,26.81,14.23,47.11,1029.21,2044.99,2744.96,2585.98,2964.03,600.02,609.87,39.46,0000 0000 0000 0000 000000
2017-10-14 09:50:02,0.01,2.00,0.00,19.80,23.58,26.80,14.37,47.20,1029.28,2044.99,2744.34,2585.97,2964.00,599.96,610.01,39.51,0000 0000 0000 0000 000000
2017-10-14 09:55:04,0.01,2.00,0.00,19.83,23.57,26.79,14.26,47.12,1029.26,2044.99,2744.02,2585.77,2964.00,600.27,610.14,39.56,0000 0000 0000 0000 000000
2017-10-14 10:00:05,0.01,2.00,0.00,19.79,23.57,26.79,14.22,47.18,1029.29,2044.99,2744.00,2585.55,2963.98,600.08,610.03,39.61,0000 0000 0000 0000 000000
2017-10-14 10:05:06,0.01,2.00,0.00,19.80,23.55,26.78,14.25,47.02,1029.28,2045.00,2743.99,2585.16,2963.96,599.99,610.23,39.66,0000 0000 0000 0000 000000
2017-10-14 10:10:07,0.01,2.00,0.00,19.77,23.55,26.75,14.30,47.08,1029.26,2045.01,2743.94,2585.03,2963.66,600.13,610.12,39.71,0000 0000 0000 0000 000000
2017-10-14 10:15:09,0.01,2.00,0.00,19.81,23.54,26.72,14.27,47.09,1029.26,2045.02,2743.59,2585.01,2963.22,600.00,610.07,39.76,0000 0000 0000 0000 000000
2017-10-14 10:20:10,0.01,2.00,0.00,19.77,23.52,26.75,14.20,47.02,1029.31,2045.03,2743.08,2585.00,2963.04,599.86,609.99,39.81,0000 0000 0000 0000 000000
2017-10-14 10:25:11,0.00,2.00,0.00,19.75,23.52,26.73,14.26,47.05,1029.31,2045.03,2743.01,2585.00,2963.00,599.91,610.00,39.86,0000 0000 0000 0000 000000
2017-10-14 10:30:12,0.01,2.00,0.00,19.79,23.52,26.72,14.28,47.12,1029.31,2045.09,2742.97,2584.99,2963.00,599.76,609.72,39.91,0000 0000 0000 0000 000000
2017-10-14 10:35:14,-0.00,2.00,0.00,19.74,23.51,26.74,14.26,47.12,1029.31,2045.07,2742.95,2584.98,2962.99,599.98,610.17,39.97,0000 0000 0000 0000 000000
2017-10-14 10:40:15,0.02,2.00,0.00,19.79,23.50,26.73,14.29,47.17,1029.31,2045.12,2742.57,2584.96,2962.98,599.88,609.95,40.02,0000 0000 0000 0000 000000
2017-10-14 10:45:16,0.02,2.00,0.00,19.74,23.50,26.71,14.29,47.17,1029.31,2045.14,2742.07,2584.87,2962.93,600.30,610.52,40.07,0000 0000 0000 0000 000000
2017-10-14 10:50:17,0.02,2.01,0.00,19.78,23.49,26.71,14.33,47.10,1029.31,2045.22,2742.01,2584.62,2962.71,599.92,609.97,40.12,0000 0000 0000 0000 000000
2017-10-14 10:55:19,0.02,2.01,0.00,19.72,23.48,26.71,14.32,47.23,1029.30,2045.26,2741.99,2584.16,2962.20,600.02,610.11,40.17,0000 0000 0000 0000 000000
2017-10-14 11:00:20,0.02,2.01,0.00,19.72,23.47,26.69,14.28,47.15,1029.30,2045.44,2741.99,2584.06,2962.07,600.30,610.50,40.22,0000 0000 0000 0000 000000
2017-10-14 11:05:21,0.02,2.01,0.00,19.74,23.47,26.71,14.28,47.09,1029.28,2045.57,2741.96,2584.03,2962.01,599.88,610.09,40.27,0000 0000 0000 0000 000000
2017-10-14 11:10:22,0.00,2.01,0.00,19.76,23.47,26.69,14.32,46.98,1029.22,2045.59,2741.71,2584.01,2962.00,600.13,610.16,40.32,0000 0000 0000 0000 000000
2017-10-14 11:15:24,0.04,2.01,0.00,19.73,23.45,26.67,14.34,47.27,1028.96,2045.93,2741.12,2584.01,2962.00,600.21,610.19,40.37,0000 0000 0000 0000 000000
2017-10-14 11:20:25,0.00,2.01,0.00,19.70,23.45,26.68,14.27,47.27,1028.84,2045.96,2741.02,2584.00,2962.00,599.71,609.72,40.42,0000 0000 0000 0000 000000
2017-10-14 11:25:26,-0.00,2.01,0.00,19.68,23.45,26.68,14.19,47.23,1028.83,2045.92,2741.00,2584.00,2961.99,599.40,609.49,40.47,0000 0000 0000 0000 000000
2017-10-14 11:30:28,-0.00,2.01,0.00,19.65,23.44,26.69,14.29,47.17,1028.83,2045.95,2741.00,2583.99,2961.98,599.84,609.87,40.52,0000 0000 0000 0000 000000
2017-10-14 11:35:29,0.00,2.01,0.00,19.70,23.42,26.65,14.24,47.17,1028.83,2045.97,2741.00,2583.98,2961.92,599.76,609.72,40.57,0000 0000 0000 0000 000000
2017-10-14 11:40:30,0.02,2.01,0.00,19.67,23.42,26.63,14.24,47.27,1028.83,2045.97,2740.79,2583.96,2961.39,599.86,609.85,40.62,0000 0000 0000 0000 000000
2017-10-14 11:45:32,0.02,2.01,0.00,19.63,23.42,26.63,14.40,47.22,1028.84,2045.99,2740.23,2583.80,2961.07,600.44,610.53,40.67,0000 0000 0000 0000 000000
2017-10-14 11:50:33,0.01,2.02,0.00,19.62,23.40,26.62,14.27,47.17,1028.84,2045.98,2740.00,2583.33,2961.00,599.49,609.63,40.72,0000 0000 0000 0000 000000
2017-10-14 11:55:34,-0.00,2.02,0.00,19.63,23.40,26.62,14.28,47.17,1028.84,2045.99,2740.00,2583.35,2961.00,599.99,610.15,40.77,0000 0000 0000 0000 000000
2017-10-14 12:00:35,0.01,2.02,0.00,19.63,23.38,26.62,14.27,47.14,1028.83,2045.99,2740.00,2583.40,2961.01,599.71,609.77,40.82,0000 0000 0000 0000 000000
2017-10-14 12:05:37,0.00,2.02,0.00,19.61,23.37,26.59,14.32,47.26,1028.83,2045.99,2740.00,2583.14,2961.00,600.03,610.21,40.87,0000 0000 0000 0000 000000
2017-10-14 12:10:38,0.00,2.02,0.00,19.59,23.37,26.59,14.35,47.27,1028.83,2045.99,2739.97,2583.05,2961.00,600.12,610.48,40.93,0000 0000 0000 0000 000000
2017-10-14 12:15:39,0.00,2.02,0.00,19.59,23.36,26.57,14.30,47.48,1028.83,2045.99,2739.89,2583.02,2960.99,600.03,610.19,40.98,0000 0000 0000 0000 000000
2017-10-14 12:20:41,0.01,2.02,0.00,19.59,23.35,26.57,14.30,47.37,1028.83,2045.99,2739.46,2583.01,2960.98,600.12,610.16,41.03,0000 0000 0000 0000 000000
2017-10-14 12:25:41,0.01,2.02,0.00,19.61,23.35,26.54,14.23,47.15,1028.83,2046.01,2739.12,2583.01,2960.98,599.90,610.13,41.08,0000 0000 0000 0000 000000
2017-10-14 12:30:43,0.00,2.02,0.00,19.58,23.33,26.55,14.32,47.30,1028.83,2046.04,2739.03,2583.01,2960.97,600.30,610.61,41.13,0000 0000 0000 0000 000000
2017-10-14 12:35:44,0.01,2.02,0.00,19.57,23.32,26.52,14.33,47.37,1028.83,2046.14,2739.01,2583.00,2960.94,600.14,610.36,41.18,0000 0000 0000 0000 000000
2017-10-14 12:40:45,0.02,2.02,0.00,19.53,23.31,26.55,14.32,47.38,1028.83,2046.34,2738.99,2583.00,2960.88,600.16,610.54,41.23,0000 0000 0000 0000 000000
2017-10-14 12:45:46,0.02,2.02,0.00,19.55,23.30,26.51,14.34,47.52,1028.82,2046.51,2738.96,2583.00,2960.52,600.04,610.41,41.28,0000 0000 0000 0000 000000
2017-10-14 12:50:48,0.02,2.02,0.00,19.54,23.29,26.50,14.24,47.48,1028.82,2046.79,2738.97,2583.00,2960.52,599.61,609.98,41.33,0000 0000 0000 0000 000000
2017-10-14 12:55:49,0.01,2.02,0.00,19.55,23.27,26.48,14.28,47.42,1028.82,2046.90,2738.97,2583.00,2960.47,599.96,610.26,41.38,0000 0000 0000 0000 000000